Weather in Verkhnyaya Buzinovka

Russia / Volgograd Oblast     49°03′37″N   43°12′42″E
temp.,
°C
wind,
m/s
gust,
m/s
humid.,
%
clouds,
%
prec.,
mm/h
press.,
hPa
HPBL,
m
7 march, sun
sun700:00−3nnw71192100 0.2 1016670
03:00−6nw7128662 0.2 1018596
06:00−7wnw5108622 0.0 1020367
09:00−5w587611 0.0 1021597
12:00−2wsw797027 0.0 10201268
15:000wsw8116664 0.1 10181422
18:00−2sw6137095 0.0 1015596
21:00−2sw8157386 0.0 1015873
8 march, mon
mon800:00−3sw9167623 0.0 1013861
03:00−2wsw9167330 0.0 1012834
06:00−3wsw8167528 0.0 1011685
09:00−1wsw9147240 0.0 1011874
12:00+2wsw101464100 0.0 10101492
15:00+3wsw101463100 0.1 10091651
18:00+1wsw61279100 0.0 1009671
21:000sw6119799 0.1 1010549
9 march, tue
tue900:000wsw61194100 0.5 1010612
03:00−1nw6895100 2.3 1010503
06:00−2w5992100 0.1 1011611
09:00−2nw687383 0.3 1012936
12:00−1wnw576528 0.1 10141299
15:000w685960 0.2 10141469
18:00−2wnw5979100 0.4 1014570
21:00−4n6892100 0.8 1017532
10 march, wed
wed1000:00−5nnw358195 0.1 1018567
03:00−6nnw348783 0.2 1019495
06:00−6n4689100 0.4 1020546
09:00−7nnw577395 0.4 1022901
12:00−6nnw565969 0.0 10231057
15:00−6nnw565766 0.0 10231175
18:00−7nnw46642 0.0 1024900
21:00−9n46628 0.0 1026587
11 march, thu
thu1100:00−10nne45676 0.0 1026527
03:00−12nne45712 0.0 1027496
06:00−13nne45720 0.0 1028439
09:00−12ne34630 0.0 1030511
12:00−10ne34471 0.0 1030758
15:00−9nne334113 0.0 1030859
18:00−10ene234630 0.0 1030614
21:00−10e235414 0.0 1032298